sat.trackr.live / text

‹ back to catalog

ZHONGXING-4A

NORAD 60606 · 2024-151A

PAYLOAD ACTIVE UNKNOWN

§ Identity

Operator
Country
PRC
Launch date
2024-08-22
Launch site
WSC
Launch vehicle
Mass (kg)
RCS (m²)

Purposes: comms

External: N2YO · Heavens-Above · Gunter

§ Orbital elements

Epoch: 2026-05-25T00:52:58.561824Z

Period
1,436.13 min
Inclination
1.3719°
Eccentricity
0.0000629
Mean motion
1.00269802 rev/d
Perigee alt
35,784.5 km
Apogee alt
35,789.8 km
Semi-major
42,165.3 km
B*
0.0000e+0
RAAN
271.1302°
Arg perigee
165.5370°
Mean anomaly
297.4249°
Rev number
652

§ Raw data

ZHONGXING-4A1 60606U 24151A   26145.03678891 -.00000366  00000+0  00000+0 0  99952 60606   1.3719 271.1302 0000629 165.5370 297.4249  1.00269802  6529

JSON: /api/v1/satellites/60606 · /tle

For live sub-satellite position, see the globe view (requires WebGL).

§ Visibility from observer

Set your observer location to see the next 7 days of passes ≥ 10°. The values pass through the URL so the page stays shareable.

No JS? Fill the form by hand. The geolocation button needs JavaScript.